TIME,DELAY(SENSOR),PRES,OXYGEN,RAWTEMP,T(OPTODE),TCPHASE,FLUOR,BETA(BETA700),BETA(BETA412),BETA(BETA440),CDOM,C(CSC),ED(ED412.20),ED(ED444.00),ED(ED489.60),ED(ED554.30),LU(LU412.10),LU(LU443.90),LU(LU489.70),LU(LU554.70),COMP,TILTX,TILTY,CHECK
1362368644,5809,871.6799926757812000,34.1071014404296900,560.9179077148438000,4.4574451446533200,56.4318389892578100,56,99,99,77,83,15523,0,0,0,0,2147125046,2147769773,2147570404,2147566436,1960,2,13,49393
1362372240,5808,951.5000000000000000,38.7721214294433600,566.2971191406250000,4.2905712127685550,55.7613983154296900,55,98,100,79,83,15520,0,0,0,0,2147122258,2147768192,2147571922,2147569609,3262,2,13,48553
1362375840,5810,954.6300048828125000,40.0165405273437500,567.3740844726562000,4.2571320533752440,55.5818214416503900,55,99,99,77,84,15519,0,0,0,0,2147123474,2147770651,2147575204,2147568676,308,2,13,45891
1362379440,5811,985.3800048828125000,41.5641899108886700,569.7188720703125000,4.1842961311340330,55.3783187866210940,54,98,101,78,81,15519,0,0,0,0,2147121664,2147771419,2147569984,2147570633,3266,2,13,46085
1362383040,5811,988.8800048828125000,41.5226593017578100,570.3107910156250000,4.1659030914306640,55.3922500610351560,55,98,100,78,82,15519,0,0,0,0,2147120694,2147768905,2147573129,2147567177,213,2,13,11851
1362386640,5810,986.4500122070312000,41.8222198486328100,570.5457763671875000,4.1585998535156250,55.3493309020996100,55,98,101,78,82,15517,0,0,0,0,2147124781,2147775168,2147572379,2147569024,67,2,13,38017
1362390240,5812,991.2600097656250000,41.5863609313964840,570.6984863281250000,4.1538519859313965,55.3912086486816400,54,97,100,77,81,15519,0,0,0,0,2147118848,2147769627,2147568813,2147567625,16,2,13,60123
1362393840,5809,989.5999755859375000,41.5767707824707000,571.2537231445312000,4.1365947723388670,55.3984985351562500,55,98,100,77,81,15521,0,0,0,0,2147122276,2147771465,2147574006,2147569819,3360,2,13,64543
1362397440,5811,982.7800292968750000,41.9442710876464840,571.9061889648438000,4.1163101196289060,55.3459205627441400,55,99,101,79,81,15517,0,0,0,0,2147120630,2147769746,2147570505,2147566765,220,2,13,13985
1362401040,5808,979.9099731445312000,42.7730789184570300,573.3994140625000000,4.0698738098144530,55.2422485351562500,54,99,100,78,81,15517,0,0,0,0,2147120841,2147771757,2147571474,2147567652,3576,2,13,60324
1362404640,5809,987.9099731445312000,42.9709701538085940,573.4483032226562000,4.0683522224426270,55.2186203002929700,55,97,101,77,81,15521,0,0,0,0,2147120585,2147775972,2147570505,2147566957,702,2,13,35576
1362408240,5812,990.2399902343750000,42.6791191101074200,572.8568115234375000,4.0867519378662110,55.2542304992675800,55,98,100,78,82,15520,0,0,0,0,2147123730,2147773787,2147574884,2147570880,113,2,13,40685
1362411840,5808,984.4500122070312000,42.0142211914062500,572.4403076171875000,4.0997028350830080,55.3414115905761700,54,99,99,77,82,15519,0,0,0,0,2147121746,2147769965,2147569929,2147569252,331,2,13,28784
1362415440,5810,997.0300292968750000,41.8693695068359400,572.3690185546875000,4.1019191741943360,55.3676490783691400,55,98,100,78,82,15518,0,0,0,0,2147125357,2147773440,2147577627,2147567780,215,2,13,7543
1362419040,5810,993.2600097656250000,41.7855300903320300,572.3568725585938000,4.1022949218750000,55.3757896423339840,54,96,99,78,81,15519,0,0,0,0,2147123190,2147771492,2147576713,2147568612,302,2,13,13656
1362422640,5811,991.4400024414062000,41.8583183288574200,572.0137939453125000,4.1129651069641110,55.3634796142578100,55,98,100,77,82,15515,0,0,0,0,2147121929,2147772955,2147571776,2147565668,449,2,13,8191
1362426240,5806,997.1300048828125000,41.9758491516113300,572.0460815429688000,4.1119580268859860,55.3470802307128900,55,97,100,78,82,15515,0,0,0,0,2147122157,2147771309,2147569792,2147567716,498,2,13,48262
1362429840,5809,1002.5300292968750000,41.1907501220703100,571.4414062500000000,4.1307578086853030,55.4518699645996100,56,98,100,78,82,15516,0,0,0,0,2147126244,2147767936,2147571200,2147567597,3412,2,13,17300
1362433440,5807,1000.2999877929688000,41.0085105895996100,571.4044189453125000,4.1319122314453125,55.4825515747070300,55,98,101,79,82,15517,0,0,0,0,2147119808,2147769974,2147572544,2147569764,221,2,13,19092
1362437040,5808,1001.0800170898438000,41.5306091308593750,571.4956054687500000,4.1290740966796875,55.4067382812500000,55,97,100,77,81,15510,0,0,0,0,2147121444,2147768905,2147568859,2147566793,2999,2,13,41742
1362440640,5810,997.1900024414062000,40.7053794860839840,571.5308837890625000,4.1279768943786620,55.5259208679199200,54,98,100,77,82,15516,0,0,0,0,2147123492,2147766701,2147574400,2147565824,3185,2,13,6308
1362444240,5810,989.7000122070312000,41.4415817260742200,571.8875122070312000,4.1168918609619140,55.4197387695312500,55,99,100,78,82,15516,0,0,0,0,2147119798,2147763922,2147569718,2147564361,721,2,13,64207
1362447840,5808,998.4600219726562000,41.2933311462402340,572.5869750976562000,4.0951390266418460,55.4514389038085940,54,98,101,78,81,15514,0,0,0,0,2147123547,2147768603,2147573385,2147566564,3580,2,13,53291
1362451440,5808,994.9699707031250000,41.5774803161621100,572.3953857421875000,4.1010990142822270,55.4057884216308600,55,96,101,78,81,15513,0,0,0,0,2147124050,2147767296,2147572141,2147568905,283,2,13,8939
1362455040,5807,994.2600097656250000,41.7481613159179700,571.7799072265625000,4.1202349662780760,55.3739891052246100,55,100,100,78,83,15513,0,0,0,0,2147123346,2147775634,2147575003,2147567040,378,2,13,41737
1362458640,5809,997.7999877929688000,41.4383583068847660,572.6298217773438000,4.0938110351562500,55.4328308105468750,55,99,101,78,82,15513,0,0,0,0,2147123593,2147767286,2147568923,2147569572,3593,2,13,22173
1362462240,5810,991.5200195312500000,41.3517799377441400,572.6536865234375000,4.0930628776550290,55.4429016113281250,55,97,101,77,82,15515,0,0,0,0,2147122797,2147762614,2147570057,2147570706,3243,2,13,3227
1362465840,5810,999.0200195312500000,41.4580307006835940,572.5737304687500000,4.0955538749694820,55.4245796203613300,55,97,100,77,83,15514,0,0,0,0,2147123008,2147765897,2147577362,2147570642,3449,2,13,49713
1362469440,5812,1003.2100219726562000,41.6959915161132800,572.0288696289062000,4.1124949455261230,55.3854103088378900,55,98,101,78,81,15511,0,0,0,0,2147122377,2147766528,2147575021,2147569846,76,2,13,41091
1362473040,5810,1004.6500244140625000,41.3959503173828100,572.0330810546875000,4.1123638153076170,55.4329795837402340,55,102,100,77,83,15511,0,0,0,0,2147120905,2147775369,2147571995,2147567451,426,2,13,27703
1362476640,5809,997.6599731445312000,41.7137985229492200,573.0653076171875000,4.0802650451660160,55.3950195312500000,54,98,100,78,82,15513,0,0,0,0,2147121526,2147771108,2147574592,2147567972,3581,2,13,46105
1362480240,5808,1003.8300170898438000,41.3680114746093750,572.6851196289062000,4.0920891761779785,55.4440193176269500,55,98,100,78,81,15510,0,0,0,0,2147123922,2147766701,2147579629,2147567350,142,2,13,58017
1362483840,5809,1011.7800292968750000,41.7347106933593750,571.4428710937500000,4.1307139396667480,55.3717308044433600,55,98,99,78,82,15510,0,0,0,0,2147121682,2147764617,2147575689,2147569472,285,2,13,29264
1362487440,5812,993.8300170898438000,41.3600616455078100,572.1124267578125000,4.1098999977111820,55.4343109130859400,55,98,100,77,82,15510,0,0,0,0,2147122340,2147768356,2147575286,2147569408,3481,2,13,58011
1362491040,5813,1009.4199829101562000,41.9378509521484400,572.4755249023438000,4.0986061096191410,55.3575096130371100,55,99,101,79,81,15508,0,0,0,0,2147125604,2147769014,2147582089,2147569234,3486,2,13,42612
1362494640,5810,994.9600219726562000,42.4581298828125000,573.0665893554688000,4.0802249908447270,55.2882995605468750,55,98,100,76,82,15508,0,0,0,0,2147121344,2147772809,2147574637,2147568310,63,3,13,61448
1362498240,5809,998.1699829101562000,42.3351287841796900,572.8682250976562000,4.0863947868347170,55.2989196777343750,54,97,112,78,82,15507,0,0,0,0,2147120777,2147768886,2147570843,2147568146,3495,2,13,50390
1362501840,5810,992.7600097656250000,42.0105209350585940,573.7462768554688000,4.0590839385986330,55.3617897033691400,55,102,102,79,82,15506,0,0,0,0,2147122230,2147771364,2147573202,2147567433,3376,2,13,54413
1362505440,5809,995.0800170898438000,42.4573707580566400,573.3635864257812000,4.0709857940673830,55.2906799316406250,55,98,98,78,82,15507,0,0,0,0,2147120914,2147769270,2147576630,2147566811,342,2,13,16678
1362509040,5808,1000.1599731445312000,42.3620491027832000,573.5706176757812000,4.0645480155944820,55.3046989440918000,55,98,101,79,83,15505,0,0,0,0,2147124562,2147772800,2147573979,2147569801,264,2,13,23789
1362512640,5812,1002.8900146484375000,42.5916786193847660,573.2864990234375000,4.0733847618103030,55.2720184326171900,55,98,100,78,81,15506,0,0,0,0,2147121984,2147768850,2147573385,2147568457,3536,2,13,30114
1362514255,5810,1000.0900268554688000,42.0564193725585940,573.1060180664062000,4.0789990425109860,55.3455009460449200,55,99,100,77,83,15498,0,0,0,0,2147124022,2147763245,2147574308,2147570294,219,2,13,31732
